Ironwood, MI

11:55 PM CDT on August 23, 2016 (GMT -0500)
Gogebic-Iron County

Weather History for KIWD - March, 2013

Change the Weather History Date:

Tuesday, March 19, 2013

  Actual Average Record
Temperature  
Mean Temperature 18 °F -  
Max Temperature 24 °F 34 °F 78 °F (2012)
Min Temperature 12 °F 15 °F 8 °F (2016)
Degree Days  
Heating Degree Days 48    
Moisture  
Dew Point 9 °F    
Average Humidity 67    
Maximum Humidity 85    
Minimum Humidity 49    
Precipitation  
Precipitation 0.00 in - - ()
Sea Level Pressure  
Sea Level Pressure 29.67 in    
Wind  
Wind Speed 18 mph (West)    
Max Wind Speed 28 mph    
Max Gust Speed 36 mph    
Visibility 5 miles    
Events      
Averages and records for this station are not official NWS values.
T = Trace of Precipitation, MM = Missing Value Source: NWS Daily Summary

Daily Weather History Graph

Daily Weather History Graph

Search for Another Location

Airport or City:

Trip Planner

Search our weather history database for the weather conditions in past years. The results will help you decide how hot, cold, wet, or windy it might be!

Date:

Astronomy

Mar. 19, 2013 Rise Set
Actual Time 7:04 AM CDT 7:12 PM CDT
Civil Twilight 6:34 AM CDT 7:42 PM CDT
Nautical Twilight 5:59 AM CDT 8:17 PM CDT
Astronomical Twilight 5:23 AM CDT 8:54 PM CDT
Moon 11:35 AM CDT (3/19) 2:18 AM CDT (3/19)
Length of Visible Light 13h 07m
Length of Day
12h 07m
Waxing Crescent, 50% of the Moon is Illuminated
Mar 19
Waxing Crescent
Mar 19
First Quarter
Mar 27
Full
Apr 2
Last Quarter
Apr 10
New

Hourly Weather History & Observations

Time (CDT) Temp. Windchill Dew Point Humidity Pressure Visibility Wind Dir Wind Speed Gust Speed Precip Events Conditions
12:15 AM 19.4 °F 7.2 °F 12.2 °F 74% 29.46 in 7.0 mi WSW 11.5 mph - N/A   Overcast
12:35 AM 17.6 °F 4.3 °F 12.2 °F 79% 29.45 in 7.0 mi WSW 12.7 mph - N/A   Overcast
12:55 AM 19.4 °F 6.0 °F 14.0 °F 80% 29.45 in 3.0 mi WSW 13.8 mph - N/A   Overcast
1:15 AM 19.4 °F 5.5 °F 14.0 °F 80% 29.44 in 9.0 mi WSW 15.0 mph - N/A   Overcast
1:35 AM 19.4 °F 5.0 °F 12.2 °F 74% 29.44 in 5.0 mi West 16.1 mph - N/A   Overcast
1:55 AM 19.4 °F 4.5 °F 14.0 °F 80% 29.45 in 5.0 mi West 17.3 mph 23.0 mph N/A   Overcast
2:15 AM 19.4 °F 4.1 °F 12.2 °F 74% 29.45 in 3.0 mi West 18.4 mph - N/A   Overcast
2:35 AM 17.6 °F 1.3 °F 12.2 °F 79% 29.46 in 1.2 mi West 19.6 mph 25.3 mph N/A   Overcast
2:55 AM 17.6 °F 1.7 °F 12.2 °F 79% 29.46 in 1.2 mi West 18.4 mph 25.3 mph N/A   Overcast
3:15 AM 17.6 °F 2.2 °F 12.2 °F 79% 29.47 in 2.0 mi West 17.3 mph 26.5 mph N/A   Overcast
3:35 AM 17.6 °F 1.3 °F 12.2 °F 79% 29.47 in 3.0 mi West 19.6 mph 26.5 mph N/A   Overcast
3:55 AM 17.6 °F 0.9 °F 10.4 °F 73% 29.47 in 3.0 mi West 20.7 mph - N/A   Overcast
4:15 AM 15.8 °F -0.6 °F 10.4 °F 79% 29.48 in 2.5 mi West 18.4 mph - N/A   Overcast
4:35 AM 15.8 °F -1.5 °F 10.4 °F 79% 29.49 in 2.0 mi West 20.7 mph - N/A   Overcast
4:55 AM 15.8 °F -0.6 °F 10.4 °F 79% 29.50 in 3.0 mi West 18.4 mph - N/A   Overcast
5:15 AM 15.8 °F -1.5 °F 10.4 °F 79% 29.51 in 3.0 mi West 20.7 mph 27.6 mph N/A   Overcast
5:35 AM 15.8 °F -1.5 °F 10.4 °F 79% 29.51 in 2.0 mi West 20.7 mph 25.3 mph N/A   Overcast
5:55 AM 15.8 °F -0.6 °F 8.6 °F 73% 29.52 in 3.0 mi West 18.4 mph 24.2 mph N/A   Overcast
6:15 AM 15.8 °F -1.5 °F 10.4 °F 79% 29.53 in 2.0 mi West 20.7 mph 26.5 mph N/A   Overcast
6:35 AM 15.8 °F -0.6 °F 10.4 °F 79% 29.54 in 2.5 mi West 18.4 mph 31.1 mph N/A   Overcast
6:55 AM 15.8 °F -1.5 °F 10.4 °F 79% 29.56 in 2.5 mi West 20.7 mph 25.3 mph N/A   Overcast
7:15 AM 15.8 °F -1.1 °F 8.6 °F 73% 29.57 in 1.2 mi West 19.6 mph - N/A   Overcast
7:35 AM 14.0 °F -3.0 °F 8.6 °F 79% 29.58 in 2.0 mi West 18.4 mph - N/A   Overcast
7:55 AM 14.0 °F -2.0 °F 8.6 °F 79% 29.59 in 2.5 mi West 16.1 mph 24.2 mph N/A   Overcast
8:15 AM 14.0 °F -2.0 °F 8.6 °F 79% 29.60 in 2.0 mi West 16.1 mph 21.9 mph N/A   Overcast
8:35 AM 12.2 °F -5.8 °F 8.6 °F 85% 29.60 in 1.2 mi West 19.6 mph 26.5 mph N/A   Overcast
8:55 AM 12.2 °F -6.3 °F 6.8 °F 79% 29.61 in 1.0 mi West 20.7 mph 25.3 mph N/A   Overcast
9:15 AM 12.2 °F -5.3 °F 8.6 °F 85% 29.62 in 0.8 mi West 18.4 mph - N/A   Overcast
9:35 AM 14.0 °F -3.9 °F 8.6 °F 79% 29.63 in 0.8 mi West 20.7 mph 28.8 mph N/A   Overcast
9:55 AM 14.0 °F -3.4 °F 8.6 °F 79% 29.64 in 0.8 mi West 19.6 mph 26.5 mph N/A   Overcast
10:15 AM 14.0 °F -3.9 °F 8.6 °F 79% 29.64 in 0.5 mi West 20.7 mph 28.8 mph N/A   Overcast
10:35 AM 15.8 °F -1.1 °F 8.6 °F 73% 29.65 in 0.8 mi West 19.6 mph 25.3 mph N/A   Overcast
10:55 AM 15.8 °F -1.9 °F 8.6 °F 73% 29.66 in 1.0 mi West 21.9 mph 27.6 mph N/A   Overcast
11:15 AM 15.8 °F -2.7 °F 8.6 °F 73% 29.67 in 0.8 mi West 24.2 mph 32.2 mph N/A   Overcast
11:35 AM 15.8 °F 0.9 °F 8.6 °F 73% 29.68 in 1.5 mi WNW 15.0 mph 25.3 mph N/A   Overcast
11:55 AM 15.8 °F 0.9 °F 8.6 °F 73% 29.69 in 2.0 mi West 15.0 mph 24.2 mph N/A   Overcast
12:15 PM 17.6 °F 1.3 °F 8.6 °F 68% 29.70 in 8.0 mi West 19.6 mph 25.3 mph N/A   Overcast
12:35 PM 17.6 °F 1.3 °F 8.6 °F 68% 29.71 in 5.0 mi WNW 19.6 mph 29.9 mph N/A   Overcast
12:55 PM 17.6 °F 2.2 °F 8.6 °F 68% 29.71 in 3.0 mi West 17.3 mph 25.3 mph N/A   Overcast
1:35 PM 19.4 °F 4.5 °F 8.6 °F 63% 29.72 in 10.0 mi West 17.3 mph 25.3 mph N/A   Overcast
1:55 PM 19.4 °F 1.4 °F 8.6 °F 63% 29.72 in 6.0 mi WNW 26.5 mph 34.5 mph N/A   Overcast
2:15 PM 21.2 °F 6.4 °F 8.6 °F 58% 29.73 in 9.0 mi West 18.4 mph 28.8 mph N/A   Overcast
2:35 PM 21.2 °F 6.8 °F 8.6 °F 58% 29.73 in 8.0 mi West 17.3 mph 32.2 mph N/A   Overcast
2:55 PM 21.2 °F 3.5 °F 6.8 °F 54% 29.74 in 5.0 mi West 27.6 mph 34.5 mph N/A   Overcast
3:15 PM 21.2 °F 4.9 °F 8.6 °F 58% 29.75 in 5.0 mi West 23.0 mph 33.4 mph N/A   Overcast
3:35 PM 23.0 °F 8.0 °F 8.6 °F 54% 29.75 in 5.0 mi WNW 20.7 mph 35.7 mph N/A   Overcast
3:55 PM 23.0 °F 8.7 °F 6.8 °F 50% 29.76 in 6.0 mi WNW 18.4 mph 32.2 mph N/A   Overcast
4:15 PM 23.0 °F 7.6 °F 8.6 °F 54% 29.77 in 4.0 mi West 21.9 mph 34.5 mph N/A   Overcast
4:35 PM 23.0 °F 6.9 °F 6.8 °F 50% 29.78 in 5.0 mi West 24.2 mph 31.1 mph N/A   Overcast
4:55 PM 23.0 °F 7.6 °F 6.8 °F 50% 29.79 in 6.0 mi West 21.9 mph 31.1 mph N/A   Overcast
5:15 PM 23.0 °F 8.7 °F 6.8 °F 50% 29.80 in 5.0 mi West 18.4 mph 32.2 mph N/A   Overcast
5:35 PM 21.2 °F 4.5 °F 6.8 °F 54% 29.81 in 6.0 mi West 24.2 mph 34.5 mph N/A   Overcast
5:55 PM 21.2 °F 5.2 °F 6.8 °F 54% 29.81 in 6.0 mi West 21.9 mph 31.1 mph N/A   Overcast
6:15 PM 23.0 °F 9.6 °F 6.8 °F 50% 29.82 in 10.0 mi West 16.1 mph - N/A   Overcast
6:35 PM 21.2 °F 6.0 °F 6.8 °F 54% 29.83 in 10.0 mi WNW 19.6 mph 27.6 mph N/A   Overcast
6:55 PM 21.2 °F 5.6 °F 5.0 °F 50% 29.83 in 10.0 mi West 20.7 mph 27.6 mph N/A   Overcast
7:15 PM 21.2 °F 5.2 °F 6.8 °F 54% 29.84 in 9.0 mi WNW 21.9 mph 29.9 mph N/A   Overcast
7:35 PM 21.2 °F 6.8 °F 6.8 °F 54% 29.84 in 10.0 mi West 17.3 mph 24.2 mph N/A   Overcast
7:55 PM 21.2 °F 7.8 °F 5.0 °F 50% 29.85 in 10.0 mi WNW 15.0 mph 24.2 mph N/A   Overcast
8:15 PM 21.2 °F 6.8 °F 6.8 °F 54% 29.86 in 10.0 mi WNW 17.3 mph 26.5 mph N/A   Overcast
8:35 PM 21.2 °F 6.0 °F 5.0 °F 50% 29.86 in 10.0 mi WNW 19.6 mph 25.3 mph N/A   Overcast
8:55 PM 19.4 °F 4.1 °F 5.0 °F 54% 29.87 in 10.0 mi NW 18.4 mph 26.5 mph N/A   Overcast
9:15 PM 19.4 °F 4.1 °F 3.2 °F 49% 29.87 in 10.0 mi WNW 18.4 mph 25.3 mph N/A   Overcast
9:35 PM 19.4 °F 5.0 °F 5.0 °F 54% 29.88 in 10.0 mi WNW 16.1 mph 26.5 mph N/A   Overcast
9:55 PM 19.4 °F 2.5 °F 5.0 °F 54% 29.88 in 10.0 mi WNW 23.0 mph 28.8 mph N/A   Overcast
10:15 PM 17.6 °F 1.3 °F 5.0 °F 58% 29.89 in 10.0 mi WNW 19.6 mph 26.5 mph N/A   Overcast
10:35 PM 17.6 °F 1.3 °F 5.0 °F 58% 29.88 in 10.0 mi WNW 19.6 mph 24.2 mph N/A   Overcast
10:55 PM 17.6 °F 2.2 °F 5.0 °F 58% 29.89 in 9.0 mi WNW 17.3 mph 26.5 mph N/A   Overcast
11:15 PM 17.6 °F 1.7 °F 6.8 °F 63% 29.89 in 5.0 mi NW 18.4 mph 27.6 mph N/A   Overcast
11:35 PM 17.6 °F 2.2 °F 6.8 °F 63% 29.89 in 4.0 mi WNW 17.3 mph 23.0 mph N/A   Overcast
11:55 PM 15.8 °F 0.9 °F 6.8 °F 68% 29.89 in 3.0 mi WNW 15.0 mph 20.7 mph N/A   Overcast